SCP
0 0 0 0 0 0 0 0 0 0 0 0 0 0 0 0 0 0 0 0 0 0 0 0 0 0 0 0 0 0 0 -0 0 0 0 0 0 0 0 0 0 0 0 0 0 -0 0
0 0 0 0 0 0 0 0 0 0 0 0 0 0 0 0 0 0 0 0 0 0 0 0 0 0 0 -0 0 0 0 0 0 -0 -0 0 0 0 0 0 0 0 0 0 0 0 0
0 0 0 0 0 0 0 0 0 0 0 0 0 0 0 0 0 0 0 0 0 0 0 0 0 0 -0 0 0 0 0 0 0 -0 -0 -0 0 0 0 0 0 -0 0 0 0 0 0
0 0 0 0 0 0 0 0 0 0 0 0 0 0 0 0 0 0 0 0 0 0 0 0 0 0 0 0 0 -0 0 0 0 -0 -0 -0 -0 -0 0 0 0 -0 0 0 0 -0 0
0 0 0 0 0 0 0 0 0 0 0 0 0 0 0 0 0 0 0 0 0 0 0 0 0 0 -0 -0 0 -0 0 0 0 -0 -0 -0 -0 0 0 0 0 0 0 0 -0 0 0
0 0 0 0 0 0 0 0 0 0 0 0 0 0 0 0 0 0 0 0 0 0 0 0 0 0 0 0 0 0 0 0 0 0 0 0 -0 -0 0 0 0 0 -0 -0 -0 0 0
0 0 0 0 0 0 0 0 0 0 0 0 0 0 0 0 0 0 0 0 0 0 0 0 0 0 0 0 0 0 0 0 0 0 0 0 -0 -0 -0 0 0 -0 -0 -0 0 0 -0
0 0 0 0 0 0 0 0 0 0 0 0 0 0 0 0 0 0 0 0 0 0 0 0 -0 0 0 0 0 0 0 0 0 0 -0 0 -0 -0 0 0 0 0 0 0 0 0 -0
0 0 0 0 0 0 0 0 0 0 0 0 0 0 0 0 0 0 0 -0 -0 0 0 0 0 0 -0 0 0 0 0 0 0 0 -0 0 0 -0 0 0 0 0 0 0 0 0 0
0 0 0 0 0 0 0 0 0 0 0 0 0 0 0 0 0 0 0 0 0 0 0 0 0 0 0 0 0 0 0 -0 0 0 0 -0 0 -0 0 0 0 0 0 0 0 0 0
0 0 0 0 0 0 0 0 0 0 0 0 0 0 0 0 0 0 0 0 0 0 0 0 0 0 0 0 0 0 0 -0 0 0 0 0 0 0 0 0 0 0 0 0 0 0 0
0 0 0 0 0 0 0 0 0 0 0 0 0 0 0 0 0 0 0 0 0 0 0 0 0 0 0 -0 0 0 0 -0 0 0 0 0 0 0 0 0 0 0 -0 0 0 0 0
0 0 0 0 0 0 0 0 0 0 0 0 0 0 0 0 0 0 0 0 0 0 0 0 0 0 0 0 0 0 0 -0 -0 0 0 0 0 0 0 0 0 -0 0 0 0 0 0
0 0 0 0 0 0 0 0 0 0 0 0 0 0 0 0 0 0 0 0 0 0 -0 0 0 0 0 -0 0 0 0 0 -0 0 0 0 0 0 0 0 0 -0 0 0 0 0 0
0 0 0 0 0 0 0 0 0 0 0 0 0 0 0 0 0 0 0 -0 0 -0 0 -0 -0 0 -0 -0 0 0 0 0 -0 0 0 0 0 0 0 0 0 0 0 0 0 0 0
0 0 0 0 0 0 0 0 0 0 0 0 0 0 0 0 0 0 -0 -0 -0 0 -0 0 -0 0 0 0 0 0 0 0 0 0 0 0 0 0 0 0 0 0 0 0 0 0 0
0 0 0 0 0 0 0 0 0 0 0 0 0 0 0 -0 -0 0 0 -0 -0 -0 -0 0 0 0 0 0 0 0 0 0 -0 -0 0 0 0 0 0 0 0 0 0 0 0 0 0
0 0 0 0 0 0 0 0 0 0 0 0 0 0 0 0 0 0 -0 -0 -0 0 -0 0 0 -0 0 0 0 0 0 0 -0 -0 -0 0 0 0 0 0 0 0 0 0 0 0 0
0 0 0 0 0 0 0 0 0 0 0 0 0 0 -0 0 -0 -0 -0 -0 -0 0 0 -0 0 -0 -0 0 0 0 0 0 -0 -0 -0 0 0 0 0 0 0 0 0 0 0 0 0
0 0 0 0 0 0 0 0 0 0 0 0 -0 0 -0 0 -0 -0 0 0 0 0 0 -0 0 0 -0 -0 0 0 0 -0 0 0 0 0 0 0 0 0 0 0 0 0 0 0 0
0 0 0 0 0 0 0 0 0 0 0 0 -0 -0 -0 -0 0 -0 -0 0 0 0 0 0 0 -0 -0 -0 0 0 0 0 -0 0 0 0 0 0 0 0 0 0 0 0 0 0 0
0 0 0 0 0 0 0 0 0 0 -0 -0 -0 0 0 -0 -0 -0 0 0 0 0 0 0 0 0 0 0 0 0 0 0 0 0 -0 -0 0 0 0 0 -0 0 0 0 0 0 0
0 0 0 0 0 0 0 0 0 0 0 -0 -0 0 0 0 0 0 -0 0 -0 0 0 0 0 -0 0 0 0 0 0 0 0 0 -0 0 0 0 0 0 0 0 0 0 0 0 0
0 0 0 0 0 0 0 0 0 0 0 -0 -0 -0 0 0 0 0 -0 0 -0 0 0 0 -0 0 0 0 0 0 0 0 0 0 0 0 0 0 0 0 0 0 0 0 0 0 0
0 0 0 0 0 0 0 0 0 0 -0 -0 -0 0 0 -0 0 0 -0 0 0 -0 -0 -0 -0 -0 0 0 0 0 0 0 0 0 0 0 0 0 0 0 0 0 0 0 0 0 0
0 0 0 0 0 -0 -0 0 0 0 -0 -0 -0 0 -0 0 -0 0 -0 0 0 0 0 0 0 0 -0 0 0 0 0 0 0 0 0 0 0 0 0 0 0 0 0 0 0 0 0
0 0 0 0 -0 -0 -0 0 0 -0 -0 -0 -0 -0 0 0 0 0 0 0 0 0 0 0 0 0 0 -0 0 0 0 0 0 0 0 0 0 0 0 0 0 0 0 0 0 0 0
0 0 0 0 -0 -0 -0 -0 0 -0 -0 -0 0 -0 -0 -0 -0 -0 0 0 0 0 0 0 0 0 0 0 0 0 0 0 0 0 0 0 0 0 0 0 0 0 0 0 0 0 0
0 0 0 0 -0 0 0 -0 -0 -0 -0 -0 -0 -0 0 0 0 0 -0 -0 0 0 0 0 0 0 0 0 0 0 0 0 0 0 0 0 0 0 0 0 0 0 0 0 0 0 0
Wind_Speed_500mb
34 35 35 38 42 37 38 41 42 42 43 42 39 38 39 40 40 39 39 39 41 42 40 37 35 36 20 24 50 28 37 31 23 57 64 66 62 75 62 62 67 56 47 50 51 46 37
35 32 36 40 41 38 40 41 42 43 44 43 41 42 44 41 42 40 41 42 40 41 42 38 34 27 26 45 31 31 35 34 36 65 72 74 62 74 73 67 55 38 56 57 51 38 36
34 34 39 42 43 40 41 42 44 46 48 45 43 44 46 49 46 44 42 42 43 40 41 38 34 29 41 68 20 25 21 35 37 61 70 74 70 63 74 63 71 71 44 33 36 54 38
35 39 41 44 44 42 42 44 46 49 55 52 50 49 49 50 48 45 45 45 46 41 37 37 32 31 38 32 46 61 38 27 34 50 60 64 65 70 71 65 74 46 24 33 45 63 25
40 41 44 44 45 45 46 47 48 53 55 55 58 59 52 51 51 49 47 48 45 43 33 28 27 33 37 22 58 52 54 49 38 48 53 52 64 68 67 54 40 42 23 50 54 62 25
44 45 46 47 44 47 51 53 56 58 58 61 61 59 52 54 56 52 49 50 40 30 12 14 11 21 53 45 36 46 48 50 47 48 53 52 60 41 43 48 40 39 60 62 53 57 45
51 49 49 46 41 44 48 52 56 60 61 58 60 53 56 70 64 52 42 35 22 14 44 34 38 42 10 32 23 43 58 53 51 58 46 65 42 50 65 62 59 64 48 60 39 41 46
50 51 53 53 52 53 57 58 60 61 61 63 61 56 62 73 70 51 36 27 36 32 39 70 68 68 60 19 29 42 63 49 60 45 54 42 52 53 51 53 52 52 45 36 48 26 38
53 52 52 49 50 53 55 60 61 56 58 55 48 59 70 73 70 37 29 47 35 29 17 50 81 83 78 49 39 55 75 67 53 54 58 45 55 54 50 48 52 46 40 23 42 28 28
55 52 54 51 55 57 58 57 57 57 58 59 67 68 68 64 43 16 24 11 16 22 11 23 54 64 75 52 41 58 77 72 40 57 59 50 50 60 46 55 49 45 36 30 34 32 30
55 55 55 55 58 56 53 50 51 51 52 53 53 53 51 37 41 43 33 22 20 18 13 3 52 18 61 73 39 61 78 75 50 39 50 50 48 57 54 51 48 39 37 35 23 32 27
58 58 58 57 56 58 53 49 52 54 56 57 59 58 53 46 39 40 26 24 19 12 22 23 27 36 51 77 48 62 74 76 49 44 47 47 49 43 53 40 40 38 38 29 31 28 29
59 59 58 57 59 63 61 55 55 57 61 64 65 68 63 54 64 31 22 22 10 14 35 32 47 46 57 53 52 59 59 60 49 46 42 49 42 46 42 46 47 42 26 22 24 26 24
60 59 58 59 62 65 66 63 60 63 67 69 74 70 45 40 28 27 30 14 21 40 67 24 22 50 48 57 56 58 59 52 56 49 35 44 41 48 36 44 36 49 41 26 26 27 29
60 59 55 57 62 65 67 65 64 64 66 74 76 47 43 28 23 34 28 22 25 57 24 43 30 44 38 55 40 51 63 56 52 47 35 41 38 44 40 38 41 47 41 49 25 20 16
59 55 53 57 64 65 68 66 64 61 68 71 59 46 13 4 25 40 16 41 47 49 26 45 34 26 41 30 41 49 52 56 54 50 47 41 30 51 41 37 40 43 41 37 22 24 26
54 50 53 58 64 65 66 63 61 61 68 56 39 27 11 3 6 33 20 32 50 73 5 27 20 9 21 52 28 42 44 32 49 51 42 29 34 44 45 36 39 34 38 35 27 25 17
55 52 55 56 63 67 65 61 58 61 66 47 27 11 6 22 5 6 24 42 59 48 45 38 9 17 25 39 46 48 45 30 67 45 48 23 15 34 47 35 34 37 33 40 22 32 21
54 51 49 58 65 63 62 56 55 55 55 54 27 28 13 10 5 4 20 45 48 52 40 15 11 13 17 5 7 39 44 42 73 54 44 19 12 26 29 7 18 26 37 30 33 16 21
52 49 50 59 64 60 52 55 60 55 53 40 16 9 9 3 13 7 14 25 25 41 35 21 4 7 3 11 20 29 46 46 68 49 23 17 4 33 21 34 34 40 33 38 35 23 17
52 47 52 57 61 55 48 59 59 52 50 21 7 8 15 13 14 27 23 16 29 18 17 25 5 5 8 10 35 22 49 43 60 49 26 20 13 5 9 23 39 44 22 29 28 35 25
52 47 49 53 58 47 50 54 55 52 48 15 21 9 16 36 32 32 14 8 16 16 9 8 11 13 14 7 23 23 35 46 50 53 47 36 25 39 11 33 31 34 40 36 32 26 30
49 46 48 51 52 46 49 50 50 53 46 20 30 30 11 28 23 18 13 14 23 10 16 3 26 16 16 12 18 17 21 15 33 40 38 26 16 19 14 16 16 11 19 18 19 16 16
46 46 49 50 48 45 45 46 46 47 46 31 24 35 10 10 17 26 29 28 38 28 18 19 14 15 14 18 14 60 60 41 26 19 17 21 26 11 10 20 18 18 10 7 22 16 15
45 44 48 47 45 43 40 40 42 44 43 32 19 23 13 9 21 25 36 31 34 35 22 27 26 24 21 21 8 15 13 15 24 21 5 24 11 10 10 17 22 14 8 10 18 21 9
44 41 46 43 45 40 35 37 41 44 42 32 15 28 21 12 18 32 24 30 11 11 12 16 17 2 14 8 12 11 7 10 6 9 12 5 12 6 15 9 8 23 16 7 1 20 11
41 37 40 43 43 38 33 37 42 42 41 35 17 28 22 15 19 40 13 16 20 8 5 11 23 15 16 12 17 9 15 19 9 11 31 18 12 12 15 4 16 18 10 9 14 12 19
43 33 33 39 40 38 33 33 37 39 40 33 23 31 26 15 16 25 23 26 29 38 11 23 8 18 15 16 15 11 14 7 11 16 13 9 8 10 9 5 6 18 10 9 18 20 17
42 31 30 37 37 38 35 32 34 36 41 34 28 26 23 8 13 13 17 22 19 22 28 23 16 19 17 9 9 7 12 11 19 8 6 7 8 7 7 10 15 26 26 21 8 18 9
Wind_Direction_500mb
328 329 326 325 324 324 326 329 331 331 330 327 321 318 315 313 312 307 302 297 290 284 281 281 284 288 296 239 245 253 264 288 226 200 200 203 206 213 216 218 219 227 224 225 261 219 243
327 325 320 319 319 318 321 326 330 334 337 333 324 316 309 305 303 302 300 301 296 288 280 277 275 274 254 256 258 243 241 227 213 200 199 205 206 210 218 220 221 214 227 239 251 263 248
334 323 320 319 318 314 318 322 326 330 332 331 330 324 314 308 305 303 299 293 292 289 283 273 267 251 247 242 243 234 220 213 211 203 197 205 210 213 215 216 212 205 207 217 235 255 253
324 321 321 322 317 312 313 317 321 327 330 329 327 324 323 317 303 299 300 297 292 292 283 272 258 234 247 249 252 236 216 217 210 206 201 204 207 219 218 229 215 206 180 221 229 235 222
327 321 321 322 321 317 314 314 316 321 323 322 322 322 319 323 319 304 300 293 293 295 281 267 216 206 258 269 227 222 217 214 197 201 201 203 206 220 216 226 216 176 197 227 227 206 156
329 328 324 325 323 319 315 313 311 313 316 318 319 318 318 318 318 311 300 298 302 280 244 161 219 200 250 230 234 211 199 196 187 188 192 203 210 215 228 215 213 197 210 224 218 186 180
326 320 318 316 316 311 308 307 309 312 315 317 319 315 315 318 313 306 305 311 248 212 204 204 193 217 303 217 201 199 186 184 182 179 191 194 206 208 214 212 222 203 220 221 246 190 187
329 325 321 315 309 304 303 305 305 308 310 312 310 303 310 318 316 300 286 254 251 297 276 238 244 238 252 271 201 197 179 178 181 183 201 184 209 212 214 223 230 237 234 215 226 194 205
335 331 326 324 318 313 309 307 306 301 301 303 300 303 309 314 319 311 267 257 262 281 270 269 237 230 223 215 227 188 185 191 190 189 202 197 196 215 212 214 221 230 240 200 227 159 209
337 333 330 326 324 321 316 316 313 306 302 298 292 298 304 312 324 295 289 322 275 247 271 253 211 224 215 208 223 206 196 193 192 197 195 210 200 198 204 219 212 214 220 216 207 182 209
338 337 336 332 329 328 326 327 324 322 319 316 315 313 314 314 288 285 267 314 305 192 263 289 187 187 186 198 168 193 193 206 201 194 195 203 210 190 209 208 204 224 197 225 223 222 251
345 343 341 339 338 338 332 328 328 324 321 319 314 310 307 298 277 275 281 269 282 231 229 234 146 180 179 194 203 174 188 212 218 212 199 210 209 197 208 202 210 218 210 192 227 228 226
347 346 345 345 346 345 344 335 330 326 321 316 313 308 298 282 267 263 256 250 234 239 231 241 163 177 182 189 199 167 186 204 209 201 194 217 191 202 200 197 206 205 187 195 202 217 228
349 347 346 349 346 346 342 337 331 327 328 323 321 317 309 278 271 242 216 204 237 228 237 69 181 173 187 181 196 177 183 195 216 204 186 200 187 193 195 207 185 203 195 214 188 206 213
346 345 348 349 345 344 343 340 338 336 335 332 328 325 303 283 246 205 193 216 225 238 284 246 234 171 191 180 181 181 187 197 201 205 194 202 185 190 196 196 197 192 216 232 279 289 238
347 348 350 350 346 345 344 343 341 340 337 339 326 321 327 186 334 191 216 239 237 257 284 291 206 152 182 176 175 191 189 196 199 213 228 194 203 178 181 212 215 204 202 218 236 256 221
351 351 350 348 346 345 344 344 344 342 341 347 332 313 23 80 170 169 209 223 243 255 351 305 321 25 219 172 176 184 183 189 208 206 223 233 222 172 175 205 196 200 206 220 223 220 217
348 347 346 347 344 344 346 346 346 346 344 351 326 297 13 330 190 225 240 255 263 264 255 262 7 65 321 190 187 193 184 183 216 209 213 189 227 188 181 185 221 206 214 201 220 215 241
348 350 352 349 349 349 349 347 347 350 348 337 310 311 326 298 295 265 280 284 274 262 256 213 267 125 240 197 219 176 188 189 191 216 206 161 156 204 161 169 212 231 209 221 215 230 224
349 348 349 349 349 350 350 347 348 352 352 341 307 331 335 307 251 256 285 298 298 280 240 171 97 103 264 345 289 211 164 190 190 179 179 160 197 208 192 194 190 208 215 211 213 221 229
348 348 348 350 351 351 350 351 351 355 355 351 336 321 350 306 326 296 338 295 308 280 49 23 102 137 149 221 240 171 163 177 174 168 178 177 225 15 301 270 190 202 188 222 164 207 229
348 348 348 351 353 351 351 355 358 358 358 353 353 351 304 291 305 335 337 304 295 101 56 37 83 92 105 36 309 166 177 159 167 170 178 191 181 174 135 144 188 180 200 196 212 217 218
348 350 350 352 354 349 352 357 359 2 6 357 350 339 308 296 357 344 339 290 306 24 66 149 136 115 88 254 352 53 104 126 150 176 174 187 184 178 138 135 128 186 182 196 204 220 256
347 349 350 351 353 349 354 358 358 360 1 345 349 351 311 304 340 341 342 3 359 70 99 60 159 119 138 104 10 67 67 64 102 139 183 149 180 144 164 150 198 85 39 256 206 204 184
346 349 348 352 352 350 354 359 2 357 357 350 351 359 324 303 333 345 349 10 9 29 44 77 54 97 126 137 25 51 28 57 27 18 120 147 103 169 162 169 107 140 151 160 190 171 200
346 346 347 352 351 349 351 357 2 360 357 352 353 348 329 301 19 354 340 3 19 7 6 41 37 189 200 205 67 54 92 105 81 18 50 26 177 130 146 170 172 94 110 64 11 151 164
342 344 347 349 351 348 347 351 355 359 2 357 348 355 337 306 347 2 0 323 342 49 1 357 1 359 306 126 118 99 60 119 107 126 168 148 106 133 126 200 84 98 137 176 217 98 121
342 337 340 345 349 350 348 346 349 358 4 2 344 353 354 315 336 12 20 12 1 18 11 330 284 6 359 29 79 92 127 98 96 136 138 135 121 134 133 167 115 131 150 287 92 112 116
341 337 336 341 344 347 352 355 351 355 359 6 342 346 337 291 339 17 23 27 14 8 344 344 39 36 2 21 37 88 117 146 144 112 95 104 72 136 54 80 108 86 74 99 96 121 76
Wind_Speed_850mb
34 35 35 38 42 37 38 41 42 42 43 42 39 38 39 40 40 39 39 39 41 42 40 37 35 36 20 24 50 28 37 31 23 57 64 66 62 75 62 62 67 56 47 50 51 46 37
35 32 36 40 41 38 40 41 42 43 44 43 41 42 44 41 42 40 41 42 40 41 42 38 34 27 26 45 31 31 35 34 36 65 72 74 62 74 73 67 55 38 56 57 51 38 36
34 34 39 42 43 40 41 42 44 46 48 45 43 44 46 49 46 44 42 42 43 40 41 38 34 29 41 68 20 25 21 35 37 61 70 74 70 63 74 63 71 71 44 33 36 54 38
35 39 41 44 44 42 42 44 46 49 55 52 50 49 49 50 48 45 45 45 46 41 37 37 32 31 38 32 46 61 38 27 34 50 60 64 65 70 71 65 74 46 24 33 45 63 25
40 41 44 44 45 45 46 47 48 53 55 55 58 59 52 51 51 49 47 48 45 43 33 28 27 33 37 22 58 52 54 49 38 48 53 52 64 68 67 54 40 42 23 50 54 62 25
44 45 46 47 44 47 51 53 56 58 58 61 61 59 52 54 56 52 49 50 40 30 12 14 11 21 53 45 36 46 48 50 47 48 53 52 60 41 43 48 40 39 60 62 53 57 45
51 49 49 46 41 44 48 52 56 60 61 58 60 53 56 70 64 52 42 35 22 14 44 34 38 42 10 32 23 43 58 53 51 58 46 65 42 50 65 62 59 64 48 60 39 41 46
50 51 53 53 52 53 57 58 60 61 61 63 61 56 62 73 70 51 36 27 36 32 39 70 68 68 60 19 29 42 63 49 60 45 54 42 52 53 51 53 52 52 45 36 48 26 38
53 52 52 49 50 53 55 60 61 56 58 55 48 59 70 73 70 37 29 47 35 29 17 50 81 83 78 49 39 55 75 67 53 54 58 45 55 54 50 48 52 46 40 23 42 28 28
55 52 54 51 55 57 58 57 57 57 58 59 67 68 68 64 43 16 24 11 16 22 11 23 54 64 75 52 41 58 77 72 40 57 59 50 50 60 46 55 49 45 36 30 34 32 30
55 55 55 55 58 56 53 50 51 51 52 53 53 53 51 37 41 43 33 22 20 18 13 3 52 18 61 73 39 61 78 75 50 39 50 50 48 57 54 51 48 39 37 35 23 32 27
58 58 58 57 56 58 53 49 52 54 56 57 59 58 53 46 39 40 26 24 19 12 22 23 27 36 51 77 48 62 74 76 49 44 47 47 49 43 53 40 40 38 38 29 31 28 29
59 59 58 57 59 63 61 55 55 57 61 64 65 68 63 54 64 31 22 22 10 14 35 32 47 46 57 53 52 59 59 60 49 46 42 49 42 46 42 46 47 42 26 22 24 26 24
60 59 58 59 62 65 66 63 60 63 67 69 74 70 45 40 28 27 30 14 21 40 67 24 22 50 48 57 56 58 59 52 56 49 35 44 41 48 36 44 36 49 41 26 26 27 29
60 59 55 57 62 65 67 65 64 64 66 74 76 47 43 28 23 34 28 22 25 57 24 43 30 44 38 55 40 51 63 56 52 47 35 41 38 44 40 38 41 47 41 49 25 20 16
59 55 53 57 64 65 68 66 64 61 68 71 59 46 13 4 25 40 16 41 47 49 26 45 34 26 41 30 41 49 52 56 54 50 47 41 30 51 41 37 40 43 41 37 22 24 26
54 50 53 58 64 65 66 63 61 61 68 56 39 27 11 3 6 33 20 32 50 73 5 27 20 9 21 52 28 42 44 32 49 51 42 29 34 44 45 36 39 34 38 35 27 25 17
55 52 55 56 63 67 65 61 58 61 66 47 27 11 6 22 5 6 24 42 59 48 45 38 9 17 25 39 46 48 45 30 67 45 48 23 15 34 47 35 34 37 33 40 22 32 21
54 51 49 58 65 63 62 56 55 55 55 54 27 28 13 10 5 4 20 45 48 52 40 15 11 13 17 5 7 39 44 42 73 54 44 19 12 26 29 7 18 26 37 30 33 16 21
52 49 50 59 64 60 52 55 60 55 53 40 16 9 9 3 13 7 14 25 25 41 35 21 4 7 3 11 20 29 46 46 68 49 23 17 4 33 21 34 34 40 33 38 35 23 17
52 47 52 57 61 55 48 59 59 52 50 21 7 8 15 13 14 27 23 16 29 18 17 25 5 5 8 10 35 22 49 43 60 49 26 20 13 5 9 23 39 44 22 29 28 35 25
52 47 49 53 58 47 50 54 55 52 48 15 21 9 16 36 32 32 14 8 16 16 9 8 11 13 14 7 23 23 35 46 50 53 47 36 25 39 11 33 31 34 40 36 32 26 30
49 46 48 51 52 46 49 50 50 53 46 20 30 30 11 28 23 18 13 14 23 10 16 3 26 16 16 12 18 17 21 15 33 40 38 26 16 19 14 16 16 11 19 18 19 16 16
46 46 49 50 48 45 45 46 46 47 46 31 24 35 10 10 17 26 29 28 38 28 18 19 14 15 14 18 14 60 60 41 26 19 17 21 26 11 10 20 18 18 10 7 22 16 15
45 44 48 47 45 43 40 40 42 44 43 32 19 23 13 9 21 25 36 31 34 35 22 27 26 24 21 21 8 15 13 15 24 21 5 24 11 10 10 17 22 14 8 10 18 21 9
44 41 46 43 45 40 35 37 41 44 42 32 15 28 21 12 18 32 24 30 11 11 12 16 17 2 14 8 12 11 7 10 6 9 12 5 12 6 15 9 8 23 16 7 1 20 11
41 37 40 43 43 38 33 37 42 42 41 35 17 28 22 15 19 40 13 16 20 8 5 11 23 15 16 12 17 9 15 19 9 11 31 18 12 12 15 4 16 18 10 9 14 12 19
43 33 33 39 40 38 33 33 37 39 40 33 23 31 26 15 16 25 23 26 29 38 11 23 8 18 15 16 15 11 14 7 11 16 13 9 8 10 9 5 6 18 10 9 18 20 17
42 31 30 37 37 38 35 32 34 36 41 34 28 26 23 8 13 13 17 22 19 22 28 23 16 19 17 9 9 7 12 11 19 8 6 7 8 7 7 10 15 26 26 21 8 18 9
Wind_Direction_850mb
328 329 326 325 324 324 326 329 331 331 330 327 321 318 315 313 312 307 302 297 290 284 281 281 284 288 296 239 245 253 264 288 226 200 200 203 206 213 216 218 219 227 224 225 261 219 243
327 325 320 319 319 318 321 326 330 334 337 333 324 316 309 305 303 302 300 301 296 288 280 277 275 274 254 256 258 243 241 227 213 200 199 205 206 210 218 220 221 214 227 239 251 263 248
334 323 320 319 318 314 318 322 326 330 332 331 330 324 314 308 305 303 299 293 292 289 283 273 267 251 247 242 243 234 220 213 211 203 197 205 210 213 215 216 212 205 207 217 235 255 253
324 321 321 322 317 312 313 317 321 327 330 329 327 324 323 317 303 299 300 297 292 292 283 272 258 234 247 249 252 236 216 217 210 206 201 204 207 219 218 229 215 206 180 221 229 235 222
327 321 321 322 321 317 314 314 316 321 323 322 322 322 319 323 319 304 300 293 293 295 281 267 216 206 258 269 227 222 217 214 197 201 201 203 206 220 216 226 216 176 197 227 227 206 156
329 328 324 325 323 319 315 313 311 313 316 318 319 318 318 318 318 311 300 298 302 280 244 161 219 200 250 230 234 211 199 196 187 188 192 203 210 215 228 215 213 197 210 224 218 186 180
326 320 318 316 316 311 308 307 309 312 315 317 319 315 315 318 313 306 305 311 248 212 204 204 193 217 303 217 201 199 186 184 182 179 191 194 206 208 214 212 222 203 220 221 246 190 187
329 325 321 315 309 304 303 305 305 308 310 312 310 303 310 318 316 300 286 254 251 297 276 238 244 238 252 271 201 197 179 178 181 183 201 184 209 212 214 223 230 237 234 215 226 194 205
335 331 326 324 318 313 309 307 306 301 301 303 300 303 309 314 319 311 267 257 262 281 270 269 237 230 223 215 227 188 185 191 190 189 202 197 196 215 212 214 221 230 240 200 227 159 209
337 333 330 326 324 321 316 316 313 306 302 298 292 298 304 312 324 295 289 322 275 247 271 253 211 224 215 208 223 206 196 193 192 197 195 210 200 198 204 219 212 214 220 216 207 182 209
338 337 336 332 329 328 326 327 324 322 319 316 315 313 314 314 288 285 267 314 305 192 263 289 187 187 186 198 168 193 193 206 201 194 195 203 210 190 209 208 204 224 197 225 223 222 251
345 343 341 339 338 338 332 328 328 324 321 319 314 310 307 298 277 275 281 269 282 231 229 234 146 180 179 194 203 174 188 212 218 212 199 210 209 197 208 202 210 218 210 192 227 228 226
347 346 345 345 346 345 344 335 330 326 321 316 313 308 298 282 267 263 256 250 234 239 231 241 163 177 182 189 199 167 186 204 209 201 194 217 191 202 200 197 206 205 187 195 202 217 228
349 347 346 349 346 346 342 337 331 327 328 323 321 317 309 278 271 242 216 204 237 228 237 69 181 173 187 181 196 177 183 195 216 204 186 200 187 193 195 207 185 203 195 214 188 206 213
346 345 348 349 345 344 343 340 338 336 335 332 328 325 303 283 246 205 193 216 225 238 284 246 234 171 191 180 181 181 187 197 201 205 194 202 185 190 196 196 197 192 216 232 279 289 238
347 348 350 350 346 345 344 343 341 340 337 339 326 321 327 186 334 191 216 239 237 257 284 291 206 152 182 176 175 191 189 196 199 213 228 194 203 178 181 212 215 204 202 218 236 256 221
351 351 350 348 346 345 344 344 344 342 341 347 332 313 23 80 170 169 209 223 243 255 351 305 321 25 219 172 176 184 183 189 208 206 223 233 222 172 175 205 196 200 206 220 223 220 217
348 347 346 347 344 344 346 346 346 346 344 351 326 297 13 330 190 225 240 255 263 264 255 262 7 65 321 190 187 193 184 183 216 209 213 189 227 188 181 185 221 206 214 201 220 215 241
348 350 352 349 349 349 349 347 347 350 348 337 310 311 326 298 295 265 280 284 274 262 256 213 267 125 240 197 219 176 188 189 191 216 206 161 156 204 161 169 212 231 209 221 215 230 224
349 348 349 349 349 350 350 347 348 352 352 341 307 331 335 307 251 256 285 298 298 280 240 171 97 103 264 345 289 211 164 190 190 179 179 160 197 208 192 194 190 208 215 211 213 221 229
348 348 348 350 351 351 350 351 351 355 355 351 336 321 350 306 326 296 338 295 308 280 49 23 102 137 149 221 240 171 163 177 174 168 178 177 225 15 301 270 190 202 188 222 164 207 229
348 348 348 351 353 351 351 355 358 358 358 353 353 351 304 291 305 335 337 304 295 101 56 37 83 92 105 36 309 166 177 159 167 170 178 191 181 174 135 144 188 180 200 196 212 217 218
348 350 350 352 354 349 352 357 359 2 6 357 350 339 308 296 357 344 339 290 306 24 66 149 136 115 88 254 352 53 104 126 150 176 174 187 184 178 138 135 128 186 182 196 204 220 256
347 349 350 351 353 349 354 358 358 360 1 345 349 351 311 304 340 341 342 3 359 70 99 60 159 119 138 104 10 67 67 64 102 139 183 149 180 144 164 150 198 85 39 256 206 204 184
346 349 348 352 352 350 354 359 2 357 357 350 351 359 324 303 333 345 349 10 9 29 44 77 54 97 126 137 25 51 28 57 27 18 120 147 103 169 162 169 107 140 151 160 190 171 200
346 346 347 352 351 349 351 357 2 360 357 352 353 348 329 301 19 354 340 3 19 7 6 41 37 189 200 205 67 54 92 105 81 18 50 26 177 130 146 170 172 94 110 64 11 151 164
342 344 347 349 351 348 347 351 355 359 2 357 348 355 337 306 347 2 0 323 342 49 1 357 1 359 306 126 118 99 60 119 107 126 168 148 106 133 126 200 84 98 137 176 217 98 121
342 337 340 345 349 350 348 346 349 358 4 2 344 353 354 315 336 12 20 12 1 18 11 330 284 6 359 29 79 92 127 98 96 136 138 135 121 134 133 167 115 131 150 287 92 112 116
341 337 336 341 344 347 352 355 351 355 359 6 342 346 337 291 339 17 23 27 14 8 344 344 39 36 2 21 37 88 117 146 144 112 95 104 72 136 54 80 108 86 74 99 96 121 76